Location: Asheville, NC
(35.6000°N, 82.5500°W)
Time: 17:05:49
(UTC-04:00)

Envisat - Pass Details

Date: 11 March 2018
Orbit: 764 x 766 km, 98.2° (Epoch: 18 June)

Event Time Altitude Azimuth Distance (km) Brightness Sun altitude
Rises 20:23:35 0° 146° (SE) 3,213 5.9 -10.8°
Reaches altitude 10° 20:26:00 10° 138° (SE) 2,291 5.0 -11.3°
Maximum altitude 20:30:39 38° 71° (ENE) 1,147 3.5 -12.3°
Drops below altitude 10° 20:35:19 10° 5° (N) 2,304 5.5 -13.2°
Sets 20:37:45 0° 357° (N) 3,234 6.4 -13.7°
